TA6AIA-13 Weather Reports


time (UTC)temp
C
wind
direction
speed
KPH
gust
KPH
rain 1hr
cm
rain 24hr
cm
rain mn
cm
humidity
%
barometer
mb
20260507070009 15 270 0.0 0.0 0.00 0.00 0.00 10 1021.1
20260507063005 15 270 0.0 0.0 0.00 0.00 0.00 10 1021.1
20260507060002 14 270 0.0 0.0 0.00 0.00 0.00 10 1021.2
20260507053003 13 270 0.0 0.0 0.00 0.00 0.00 10 1021.1
20260507050003 12 270 0.0 0.0 0.00 0.00 0.00 10 1020.9
20260507043005 11 315 0.0 0.0 0.00 0.00 0.00 10 1020.4
20260507040003 10 270 0.0 0.0 0.00 0.00 0.00 10 1020.0
20260507030005 8 270 0.0 0.0 0.00 0.00 0.00 10 1019.8
20260507023003 8 315 0.0 0.0 0.00 0.00 0.00 10 1019.4
20260507020004 8 270 0.0 0.0 0.00 0.00 0.00 10 1019.1
20260507013002 8 270 0.0 0.0 0.00 0.00 0.00 10 1019.0
20260507010003 8 270 0.0 0.0 0.00 0.00 0.00 10 1019.0
20260507003004 8 270 0.0 0.0 0.00 0.00 0.00 10 1019.0
20260507000005 8 270 0.0 0.0 0.00 0.00 0.00 10 1018.9
20260506233003 9 270 0.0 0.0 0.00 0.00 0.00 10 1019.0
20260506230002 8 270 0.0 0.0 0.00 0.00 0.00 10 1019.1
20260506220003 9 315 0.0 0.0 0.00 0.00 0.00 10 1019.3
20260506213003 9 270 0.0 0.0 0.00 0.00 0.00 10 1019.4
20260506210005 9 270 0.0 0.0 0.00 0.00 0.00 10 1019.4
20260506203004 10 270 0.0 0.0 0.00 0.00 0.00 10 1019.3
20260506200003 10 270 0.0 0.0 0.00 0.00 0.00 10 1019.4
20260506193004 10 270 0.0 0.0 0.00 0.00 0.00 10 1019.6
20260506190005 10 315 0.0 0.0 0.00 0.00 0.00 10 1019.7
20260506183005 11 270 0.0 0.0 0.00 0.00 0.00 10 1019.8
20260506180005 11 270 0.0 0.0 0.00 0.00 0.00 10 1019.7
20260506173003 12 270 0.0 0.0 0.00 0.00 0.00 10 1019.5
20260506170004 13 270 0.0 0.0 0.00 0.00 0.00 10 1019.4
20260506163002 13 270 0.0 0.0 0.00 0.00 0.00 10 1019.4
20260506153004 14 315 0.0 0.0 0.00 0.00 0.00 10 1019.3
20260506150003 15 315 0.0 0.0 0.00 0.00 0.00 10 1019.5
20260506140002 15 270 0.0 0.0 0.00 0.00 0.00 10 1019.7
20260506133005 15 270 0.0 0.0 0.00 0.00 0.00 10 1019.7
20260506130002 16 270 0.0 0.0 0.00 0.00 0.00 10 1019.7
20260506123004 16 315 0.0 0.0 0.00 0.00 0.00 10 1019.8
20260506120004 23 270 0.0 0.0 0.00 0.00 0.00 93 1019.8
20260506113004 18 270 0.0 0.0 0.00 0.00 0.00 10 1020.0
20260506110003 16 270 0.0 0.0 0.00 0.00 0.00 10 1020.2
20260506103003 16 270 0.0 0.0 0.00 0.00 0.00 10 1020.2
20260506100004 15 270 0.0 0.0 0.00 0.00 0.00 10 1020.2
20260506093005 16 270 0.0 0.0 0.00 0.00 0.00 10 1020.1
20260506090005 16 270 0.0 0.0 0.00 0.00 0.00 10 1020.2
20260506083006 15 315 0.0 0.0 0.00 0.00 0.00 10 1020.2
20260506073006 14 315 0.0 0.0 0.00 0.00 0.00 10 1020.0